This is the latest recevied weather packets stored in our database for station/object KI2K. If no packets are shown the sender has not sent any weather packets the latest 10 day(s).
| Time | Temp. | Humidity | Pressure | Rain* | Wind** | Luminosity | Snow |
|---|---|---|---|---|---|---|---|
| 1777609521 | 11.67° C | 73% | 1013.2 hPa | 0 mm | - | 0 W/m² | - |
| 1777609218 | 11.67° C | 74% | 1013 hPa | 0 mm | - | 0 W/m² | - |
| 1777608916 | 11.67° C | 74% | 1013.1 hPa | 0 mm | - | 0 W/m² | - |
| 1777608612 | 11.67° C | 71% | 1013.3 hPa | 0 mm | - | 0 W/m² | - |
| 1777608309 | 11.67° C | 72% | 1013.4 hPa | 0 mm | - | 0 W/m² | - |
| 1777608008 | 11.67° C | 72% | 1013.4 hPa | 0 mm | - | 0 W/m² | - |
| 1777607703 | 11.67° C | 72% | 1013.6 hPa | 0 mm | - | 0 W/m² | - |
| 1777607399 | 11.67° C | 72% | 1013.4 hPa | 0 mm | - | 0 W/m² | - |
| 1777607096 | 11.67° C | 72% | 1013.5 hPa | 0 mm | - | 0 W/m² | - |
| 1777606791 | 11.67° C | 72% | 1013.6 hPa | 0 mm | - | 0 W/m² | - |
| 1777606486 | 11.11° C | 72% | 1013.9 hPa | 0 mm | - | 0 W/m² | - |
| 1777606183 | 11.67° C | 74% | 1013.9 hPa | 0 mm | - | 0 W/m² | - |
| 1777605878 | 11.67° C | 72% | 1013.6 hPa | 0 mm | - | 0 W/m² | - |
| 1777605573 | 11.67° C | 71% | 1013.7 hPa | 0 mm | - | 0 W/m² | - |
| 1777605268 | 11.67° C | 73% | 1013.8 hPa | 0 mm | - | 0 W/m² | - |
| 1777604965 | 11.67° C | 73% | 1013.6 hPa | 0 mm | - | 0 W/m² | - |
| 1777604660 | 11.67° C | 71% | 1013.8 hPa | 0 mm | - | 0 W/m² | - |
| 1777604357 | 11.67° C | 72% | 1013.8 hPa | 0 mm | - | 0 W/m² | - |
| 1777604051 | 11.67° C | 73% | 1013.8 hPa | 0 mm | - | 0 W/m² | - |
| 1777603749 | 11.67° C | 75% | 1013.8 hPa | 0 mm | - | 0 W/m² | - |
| 1777603444 | 11.67° C | 73% | 1013.9 hPa | 0 mm | - | 0 W/m² | - |
| 1777603141 | 11.67° C | 75% | 1014.3 hPa | 0 mm | - | 0 W/m² | - |
| 1777602836 | 11.67° C | 71% | 1014 hPa | 0 mm | - | 0 W/m² | - |
| 1777602531 | 11.67° C | 70% | 1014.3 hPa | 0 mm | - | 0 W/m² | - |
| 1777602227 | 12.22° C | 71% | 1013.9 hPa | 0 mm | - | 0 W/m² | - |
* Rain latest hour (hover to see other rain measurements)
** Current wind speed in m/s (hover to see current wind gust speed)